Regional Weather Roundup
Issued by NWS Boston, MA

Home | Current Version | Previous Version | Text Only | Print | Product List | Glossary On
Versions: 1 2 3 4 5 6 7 8 9 10 11 12 13 14 15 16 17 18 19 20 21 22 23 24 25 26 27
000
ASUS41 KBOX 061410
RWRBOX

REGIONAL WEATHER ROUNDUP
NATIONAL WEATHER SERVICE TAUNTON MA
1000 AM EDT FRI MAY 06 2016

NOTE:  "FAIR" INDICATES FEW OR NO CLOUDS BELOW 12,000 FEET WITH NO
SIGNIFICANT WEATHER AND/OR OBSTRUCTIONS TO VISIBILITY.  THE FOLLOWING
OBSERVATION LOCATIONS DO NOT REPORT PRESENT WEATHER...PROVINCETOWN...
SMITHFIELD...BLOCK ISLAND...KEENE...AND OXFORD.

MAZALL-061500-
EASTERN MASSACHUSETTS

CITY           SKY/WX    TMP DP  RH WIND       PRES   REMARKS
BOSTON         CLOUDY    53  44  71 NE14      29.82R
BEVERLY        CLOUDY    52  42  69 NE13      29.82R
LAWRENCE       CLOUDY    53  44  71 NE6       29.84R
BEDFORD        CLOUDY    52  45  77 E10       29.81R
BLUE HILL        N/A     48  43  82 E14G22    29.80R
NORWOOD        CLOUDY    51  43  74 NE13G22   29.82R
MARSHFIELD     PTSUNNY   50  45  81 NE12      29.85R
PLYMOUTH       CLOUDY    50  45  83 NE13      29.83R
TAUNTON        CLOUDY    52  44  74 VRB7      29.82R
NEW BEDFORD    CLOUDY    50  44  80 NE14G22   29.80R
$$

MAZALL-061500-
CAPE COD AND THE ISLANDS

CITY           SKY/WX    TMP DP  RH WIND       PRES   REMARKS
FALMOUTH       CLOUDY    48  45  87 NE13G20   29.81R
HYANNIS        CLOUDY    49  45  86 N14G20    29.80R
CHATHAM        CLOUDY    48  43  82 NE10G18   29.82R
PROVINCETOWN   CLOUDY    49  46  90 NE10      29.83R
NANTUCKET      CLOUDY    50  45  83 NE21G26   29.79S
MARTHAS VNYRD  CLOUDY    50  44  80 NE20      29.79R
$$

MAZALL-061500-
CENTRAL AND WESTERN MASSACHUSETTS

CITY           SKY/WX    TMP DP  RH WIND       PRES   REMARKS
WORCESTER      CLOUDY    50  42  74 NE10      29.79R
FITCHBURG      CLOUDY    56  43  61 NE7       29.82R
ORANGE         CLOUDY    54  45  71 NE7       29.79R
SPRINGFIELD    CLOUDY    55  45  68 NE13      29.76F
WESTFIELD      CLOUDY    54  44  69 NE8       29.78R
NORTH ADAMS    CLOUDY    55  41  59 E9        29.77S
PITTSFIELD     LGT RAIN  50  45  83 NE5       29.76R
$$

RIZALL-061500-
RHODE ISLAND

CITY           SKY/WX    TMP DP  RH WIND       PRES   REMARKS
PROVIDENCE     CLOUDY    52  44  74 NE16      29.80S
NEWPORT        CLOUDY    51  44  77 NE16G25   29.78S
BLOCK ISLAND   CLOUDY    49  45  86 NE18G24   29.77R
SMITHFIELD     CLOUDY    48  43  81 NE12      29.81S
WESTERLY       CLOUDY    53  43  68 NE13G23   29.77R
$$

CTZALL-061500-
CONNECTICUT

CITY           SKY/WX    TMP DP  RH WIND       PRES   REMARKS
BRADLEY INTL   LGT RAIN  54  45  71 NE14      29.77R
HARTFORD       CLOUDY    54  44  69 E8G18     29.77R
BRIDGEPORT     LGT RAIN  51  47  86 NE14      29.73R
DANBURY        LGT RAIN  49  46  90 NE13      29.73F
GROTON         CLOUDY    54  46  74 NE17      29.75R
NEW HAVEN      CLOUDY    51  47  86 NE10      29.73S
CHESTER        LGT RAIN  50  45  81 NE14G22   29.74R
MERIDEN        LGT RAIN  52  45  77 N9        29.74S
WILLIMANTIC    CLOUDY    53  43  68 NE12      29.78S
OXFORD         LGT RAIN  48  43  81 NE14G21   29.73F FOG
$$

MEZ002-015-021-024-NHZ003-005-008-011-012-014-VTZ005-008-061500-
NORTHERN NEW ENGLAND

CITY           SKY/WX    TMP DP  RH WIND       PRES   REMARKS
PORTLAND ME    CLOUDY    53  43  68 NE7       29.83R
BANGOR ME      PTSUNNY   54  41  61 N20       29.82S
CONCORD NH     CLOUDY    58  42  55 VRB6      29.81R
MANCHESTER NH  PTSUNNY   58  42  55 E12       29.81R
NASHUA NH      CLOUDY    56  44  64 E6        29.82R
PORTSMOUTH NH  CLOUDY    53  44  71 NE5       29.82R
JAFFREY NH     CLOUDY    53  45  74 CALM      29.80R
KEENE NH       MOSUNNY   57  43  58 NW5       29.80R
BURLINGTON VT  FAIR      55  39  54 NW13      29.85S
MT. WASHINGTON MOSUNNY   45  41  87 CALM        N/A
$$

NYZ052-076-061500-
EASTERN NEW YORK

CITY           SKY/WX    TMP DP  RH WIND       PRES   REMARKS
ALBANY         CLOUDY    57  41  55 N14       29.80R
NEW YORK CITY  LGT RAIN  50  48  93 NE21G31   29.70S FOG
$$

ANZALL-061500-
MARINE OBSERVATIONS

STATION/POSITION TIME  TEMP    WIND        PRES    VSBY  WAVE
                       AIR SEA DIR/SP/G                  HT/PER
                 (UTC) (F)     (DEG/KT/KT) (MB)    (MI)  (FT/S)
BOSTON BUOY      1250   47 47   30/ 10/ 12 1008.4          7/ 8
BUZZARDS BAY     1300   47      40/ 21/ 23 1008.3R
NANTUCKET SOUND  1250   47 46   30/  8/ 12 1008.9          2/ 3
MASS BAY-STELLWA 1304   47 46                N/A    1 7/8  6/ 8
ISLE OF SHOALS   1300   47      30/ 14/ 16 1009.1R
S OF BLOCK IS    NOT AVBL
$$

......................KEY.........................
  SKY/WX - SKY CONDITION/PRESENT WEATHER
  TMP    - TEMPERATURE IN FAHRENHEIT
  DWPT   - DEWPOINT IN FAHRENHEIT
  RH     - RELATIVE HUMIDITY IN PERCENT
  WIND   - DIRECTION AND SPEED IN MPH
  PRES   - MEAN SEA LEVEL PRESSURE IN INCHES OF HG
  WCI    - WIND CHILL INDEX
  VSB    - VISIBILITY IN MILES
  HX     - HEAT INDEX
  TC     - TEMPERATURE IN CELSIUS
  VRB    - VARIABLE WIND DIRECTION
  N/A    - NOT AVAILABLE




USA.gov is the U.S. government's official web portal to all federal, state and local government web resources and services.